Location: Newark
(52.3500°N, 175.9667°E)
Time: 18:31:27
(UTC+00:00)

N. Korean satellite - Pass Details

Date: 21 November 2019
Orbit: 455 x 506 km, 97.2° (Epoch: 12 December)

Event Time Altitude Azimuth Distance (km) Brightness Sun altitude
Rises 06:29:29 0° 214° (SW) 2,577 10.9 -19.8°
Reaches altitude 10° 06:32:31 10° 243° (WSW) 1,710 10.3 -20.2°
Maximum altitude 06:34:20 13° 272° (W) 1,527 10.2 -20.5°
Drops below altitude 10° 06:36:09 10° 302° (WNW) 1,726 10.1 -20.8°
Sets 06:39:15 0° 331° (NNW) 2,623 10.6 -21.2°
